Погода в Полновате

Россия / Ханты-Мансийский автономный округ - Югра     63°47′17″N   65°54′37″E
темп.,
°C
ветер,
м/с
пор.,
м/с
влажн.,
%
обл.,
%
осадки,
мм/ч
давл.,
гПа
погр.,
м
6 мая, чт
чт623:00+4в3798100 0.3 995211
02:00+4всв2599100 0.6 992146
05:00+5в61198100 2.1 986318
08:00+3ссз5799100 6.7 982181
11:00+1з101596100 9.3 984553
14:00+2з121696100 1.6 9861052
17:00+2з122094100 5.2 9911511
20:00+1зсз111996100 2.1 9941222
7 мая, пт
пт723:00+1зсз101891100 3.6 9961168
02:00+1зсз101578100 0.8 9981086
05:000зсз10167062 0.8 1001928
08:00+1сз10146875 0.0 10041137
11:00+3сз11146296 0.0 10061384
14:00+5сз10135780 0.0 10091438
17:00+5ссз812567 0.0 10121250
20:00+3ссз58684 0.0 1014485
8 мая, сб
сб823:000с22845 0.0 101622
02:00−1св11856 0.0 101610
05:000вюв22825 0.0 101861
08:00+4юв3463100 0.0 1018306
11:00+6юв4665100 0.0 1017311
14:00+12юз266066 0.0 1017846
17:00+12зсз69647 0.0 10181219
20:00+9сз46720 0.0 1021116
9 мая, вс
вс923:00+6вюв22840 0.0 102210
02:00+5ююз33850 0.0 102314
05:00+5зюз22855 0.0 102419
08:00+9зюз226749 0.0 1025212
11:00+14юз23494 0.0 1025800
14:00+16зюз3338100 0.0 10241765
17:00+17юз123413 0.0 10241882
20:00+15юв22465 0.0 102412
10 мая, пн
пн1023:00+11юв34601 0.0 102443
02:00+9ююв33645 0.0 102323
05:00+9ююв226152 0.0 102411
08:00+13ююз234612 0.0 1023272
11:00+17зюз33350 0.0 1022793
14:00+20юз33280 0.0 10201701
17:00+20юз33265 0.0 10191973
20:00+18ююв333428 0.0 101722